Cloud_Cover
100 100 100 88 35 93 41 98 37 40 21 0 4 99 100 100 100 100 95 74 78 64 5 5 0 0 0 0 0 0 0 83 100 100 99 100 93 42 100 100 100 100 21 5 100 99 81 63 100 99 98 87 52 83
100 100 100 100 100 100 100 35 25 100 24 9 8 100 100 100 100 100 91 56 12 33 6 5 1 0 0 0 0 4 1 42 100 100 100 100 100 100 100 100 100 100 69 58 53 73 15 5 97 100 60 5 5 5
100 100 100 100 100 100 100 94 25 91 100 99 100 100 100 100 100 100 94 97 6 5 5 5 5 0 0 2 5 0 0 25 100 100 100 100 100 100 100 100 100 100 100 91 19 29 21 48 5 5 15 20 5 5
100 100 100 100 100 100 100 19 71 36 98 92 99 100 100 100 100 100 100 44 9 8 5 0 0 0 0 0 1 61 5 64 100 100 100 100 100 100 96 84 100 94 100 86 100 22 5 55 23 5 5 29 5 79
100 100 100 100 100 100 71 46 13 81 98 93 100 93 100 100 100 100 99 89 24 2 0 0 0 0 0 0 0 9 82 99 100 100 100 100 100 100 98 8 57 100 94 55 96 82 26 81 100 62 5 5 43 87
100 100 100 100 100 100 100 100 5 17 20 16 100 46 100 100 100 100 79 15 5 5 4 0 0 0 0 0 0 0 45 100 100 100 100 100 100 100 100 100 100 100 100 99 100 100 71 58 5 5 10 55 30 31
100 100 100 100 100 100 100 100 99 55 10 5 12 29 100 100 100 100 98 25 5 5 0 0 0 0 0 0 0 0 100 100 100 100 100 100 100 100 100 100 99 100 100 100 100 98 40 14 44 86 98 6 5 15
100 100 100 100 100 100 100 100 72 63 45 33 5 9 99 100 100 100 98 46 16 5 1 1 2 1 0 0 1 0 100 100 100 100 100 100 100 100 100 95 100 100 100 100 100 100 98 97 100 50 38 100 100 91
100 100 100 100 100 100 100 100 100 86 100 78 8 5 88 100 100 100 100 89 37 5 2 2 3 61 0 3 1 0 66 100 100 100 100 100 100 100 95 100 53 100 100 100 100 100 100 100 96 68 94 100 100 100
100 100 100 100 100 100 100 100 100 100 100 100 86 99 100 100 81 99 91 99 100 22 5 0 0 2 2 5 7 5 4 99 100 100 100 100 100 100 100 100 100 93 100 100 100 100 100 100 96 58 92 100 100 100
100 100 100 100 100 100 100 100 100 100 100 100 96 98 100 100 97 100 95 100 88 5 5 0 0 5 0 2 24 8 30 67 95 100 100 100 100 100 100 100 100 100 100 100 93 93 98 47 76 100 100 100 100 100
100 100 100 100 100 100 100 100 100 100 100 100 85 100 100 100 94 92 100 98 7 15 4 0 0 0 2 0 0 34 20 10 17 75 100 100 100 100 100 98 98 92 100 100 100 100 98 90 35 64 87 65 90 100
100 100 100 100 100 100 100 100 100 100 100 100 100 100 100 100 100 100 100 37 7 5 4 4 2 0 0 0 1 1 5 29 13 0 49 100 98 100 95 100 93 46 58 95 100 100 67 34 43 5 7 40 50 62
100 100 100 100 100 100 100 100 100 100 100 100 100 100 100 100 100 100 95 6 42 5 16 26 5 0 2 32 34 96 98 50 26 7 18 64 100 100 89 71 76 73 11 20 32 16 46 54 19 5 5 5 5 5
100 100 100 100 100 90 100 80 76 100 100 100 100 100 100 100 100 86 5 10 6 0 21 13 0 0 1 52 59 100 100 100 64 21 43 36 69 12 68 100 100 100 89 49 8 5 5 5 5 5 2 2 3 4
100 100 100 100 100 100 96 86 61 42 100 100 100 100 100 100 100 10 38 10 5 8 7 2 3 15 74 69 94 100 100 91 86 46 28 64 99 100 99 71 30 75 100 99 99 83 28 5 5 9 8 55 67 90
100 100 100 100 100 100 88 87 71 13 89 100 100 100 100 100 71 15 5 23 5 5 6 8 6 65 78 100 100 100 86 98 100 73 18 9 5 5 5 5 5 49 79 100 100 100 86 95 70 22 29 58 86 98
100 82 100 100 100 100 100 100 41 5 5 75 100 100 100 68 33 42 22 19 6 6 60 85 49 55 98 96 98 100 100 100 99 68 77 5 5 5 9 77 99 98 93 100 98 48 98 56 100 97 80 62 85 98
99 100 100 96 100 100 100 100 100 32 9 37 44 100 91 29 22 26 22 5 5 2 5 8 42 75 74 100 85 100 100 100 86 51 5 3 1 46 100 75 92 100 100 100 90 100 100 99 90 99 100 97 100 87
99 100 70 100 100 100 100 100 100 61 40 48 42 36 90 62 6 9 5 5 5 5 8 20 86 100 100 100 100 98 58 18 2 2 13 42 56 77 53 95 76 86 100 98 71 78 84 95 100 100 100 100 99 95
96 86 61 10 65 100 100 100 100 98 40 20 6 5 27 5 25 46 56 5 5 32 45 65 50 54 41 62 8 22 29 4 0 34 95 100 100 100 100 100 100 87 100 100 93 100 100 100 99 98 96 98 100 98
94 96 79 85 13 50 100 100 100 99 100 100 98 64 22 38 75 26 5 4 6 40 18 44 42 13 4 5 11 10 57 100 100 100 100 100 100 100 100 100 100 100 100 100 84 83 99 100 100 91 100 78 25 13
100 80 58 67 94 100 99 100 100 100 100 100 68 10 32 24 5 1 4 4 5 48 41 6 1 0 5 63 100 100 100 100 100 100 100 100 100 100 100 100 100 100 100 84 73 45 74 100 87 75 92 11 84 46
99 98 93 96 87 100 100 100 100 100 100 28 22 10 6 4 0 3 4 5 6 1 0 8 73 100 100 100 100 100 100 100 100 100 100 100 100 100 100 92 73 96 90 94 92 87 22 61 91 87 20 3 5 5
65 47 43 99 97 97 86 52 46 45 21 6 8 5 5 4 5 31 39 5 11 24 93 100 100 100 100 100 100 100 100 100 100 100 100 100 100 100 98 72 7 5 6 11 22 8 5 39 82 71 63 18 10 7
84 9 81 29 10 42 28 15 5 5 5 5 5 5 5 5 18 74 39 97 100 100 100 100 100 100 100 100 100 100 100 100 100 100 100 95 100 100 100 86 42 6 23 94 91 81 72 66 96 78 98 81 23 29
52 48 23 19 48 15 10 5 5 5 5 5 6 27 83 98 100 100 100 100 100 100 100 100 100 100 100 100 100 100 98 100 100 100 90 75 60 71 98 100 100 34 5 42 68 36 24 57 21 12 28 75 4 5
27 32 53 16 41 7 41 20 19 9 12 40 92 100 99 100 100 100 100 100 100 100 100 100 100 100 100 93 87 86 86 99 100 89 12 22 14 30 18 8 5 11 5 5 12 43 64 52 44 91 28 69 23 15
60 58 17 27 12 5 5 64 100 94 81 90 79 98 96 100 100 100 96 100 100 100 100 100 100 88 85 99 99 100 98 100 86 85 84 100 92 61 8 26 81 10 5 10 34 42 2 6 47 67 53 82 74 58
100 80 90 90 94 80 88 83 100 95 98 100 100 100 100 100 100 100 100 100 100 100 100 100 100 98 100 100 99 98 100 100 96 50 41 49 67 31 22 30 20 14 6 6 69 42 17 10 16 33 37 64 94 89
99 90 100 100 100 90 96 80 91 93 100 100 100 100 100 100 100 100 100 100 100 100 100 100 100 100 100 100 100 100 100 50 45 69 83 44 34 44 40 25 49 61 51 69 66 82 80 78 90 77 100 96 72 98
100 100 100 100 100 100 100 100 100 100 100 100 100 100 100 100 100 100 100 100 100 100 100 100 100 100 100 100 100 67 57 44 44 54 41 41 91 52 30 26 18 11 7 12 41 89 97 46 70 76 95 100 100 74
100 100 100 100 100 100 100 100 100 100 100 100 100 100 100 100 100 100 100 100 100 100 100 100 100 100 95 94 99 82 36 27 11 34 41 37 28 58 93 99 100 92 54 50 35 28 14 46 65 100 100 100 94 87